Hourly Data Report for October 28, 2014

All times are specified in Local Standard Time (LST). Add 1 hour to adjust for Daylight Saving Time where and when it is observed.

IQALUIT CLIMATE
NUNAVUT

63°44'50.000" N
68°32'40.000" W
33.50 m
2402592
71321
XFB

Download Data

Hourly Data (October 2014)
Hourly Data Report for October 28, 2014
Temp Definition
°C
Dew Point Temp Definition
°C
Rel Hum Definition
%
Wind Dir Definition
10's deg

Wind Spd Definition
km/h
Visibility Definition
km
Stn Press Definition
kPa
Hmdx Definition


Wind Chill Definition


Weather Definition


TIME
00:00 -1.0 -2.8 88 15 41   101.25   -9 LegendNANA
01:00 -1.1 -2.8 88 15 35   101.22   -8 LegendNANA
02:00 -1.2 -2.8 89 14 34   101.19   -8 LegendNANA
03:00 -1.2 -2.9 88 15 38   101.14   -9 LegendNANA
04:00 -1.3 -2.3 93 14 36   101.10   -9 LegendNANA
05:00 -1.3 -2.0 95 15 34   101.06   -9 LegendNANA
06:00 -1.2 -1.8 96 14 37   101.04   -9 LegendNANA
07:00 -1.0 -1.7 95 14 38   101.02   -9 LegendNANA
08:00 -0.9 -1.7 94 14 36   101.00   -8 LegendNANA
09:00 -0.8 -1.6 94 14 35   100.95   -8 LegendNANA
10:00 -0.5 -1.5 93 14 37   100.92   -8 LegendNANA
11:00 -0.4 -1.7 91 15 36   100.90   -8 LegendNANA
12:00 -0.4 -1.7 91 15 33   100.87   -7 LegendNANA
13:00 -0.4 -1.6 91 14 28   100.87   -7 LegendNANA
14:00 -0.6 -1.4 95 14 27   100.85   -7 LegendNANA
15:00 -0.6 -1.4 94 14 25   100.84   -7 LegendNANA
16:00 -0.5 -1.2 95 14 25   100.82   -7 LegendNANA
17:00 -0.5 -1.1 95 14 27   100.80   -7 LegendNANA
18:00 -0.4 -0.9 97 15 26   100.82   -7 LegendNANA
19:00 -0.3 -0.8 97 15 28   100.79   -7 LegendNANA
20:00 -0.2 -0.7 96 15 29   100.76   -7 LegendNANA
21:00 -0.3 -0.7 97 15 24   100.73   -6 LegendNANA
22:00 -0.4 -0.7 98 15 25   100.72   -6 LegendNANA
23:00 -0.4 -0.7 97 15 20   100.75   -6 LegendNANA

Notes on Data Quality.

Legend

  • E = Estimated
  • M = Missing
  • NA = Not Available
  • ‡ = Partner data that is not subject to review by the National Climate Archives
Date modified: